4 Feb
2016
4 Feb
'16
9:55 p.m.
Below is the TLE for AGGIESAT4
1 41313U 98067HP 16035.86536833 .00019080 00000-0 28946-3 0 9999 2 41313 51.6454 2.8905 0006899 78.5036 281.6745 15.54610038 954
I intended this to be in the orb16035.2l.amsat distribtuion but it didn't make it. I will fix that next week.
3242
Age (days ago)
3242
Last active (days ago)
0 comments
1 participants
participants (1)
-
Ray Hoad